This is the latest recevied weather packets stored in our database for station/object IZ4UFQ-10. If no packets are shown the sender has not sent any weather packets the latest 10 day(s).
| Time | Temp. | Humidity | Pressure | Rain* | Wind** | Luminosity | Snow |
|---|---|---|---|---|---|---|---|
| 1777615232 | 10.56° C | 62% | 1027.1 hPa | 0 mm | - | 290 W/m² | - |
| 1777614932 | 10.56° C | 63% | 1027.1 hPa | 0 mm | - | 276 W/m² | - |
| 1777614632 | 10° C | 64% | 1027.1 hPa | 0 mm | - | 258 W/m² | - |
| 1777614331 | 9.44° C | 65% | 1027 hPa | 0 mm | - | 243 W/m² | - |
| 1777614031 | 9.44° C | 66% | 1027 hPa | 0 mm | - | 225 W/m² | - |
| 1777613731 | 9.44° C | 67% | 1026.9 hPa | 0 mm | - | 207 W/m² | - |
| 1777613431 | 8.89° C | 69% | 1026.9 hPa | 0 mm | - | 190 W/m² | - |
| 1777613130 | 8.33° C | 70% | 1026.8 hPa | 0 mm | - | 172 W/m² | - |
| 1777612830 | 8.33° C | 72% | 1026.9 hPa | 0 mm | - | 155 W/m² | - |
| 1777612530 | 7.78° C | 73% | 1026.8 hPa | 0 mm | - | 139 W/m² | - |
| 1777612229 | 7.78° C | 73% | 1026.7 hPa | 0 mm | - | 118 W/m² | - |
| 1777611929 | 7.22° C | 74% | 1026.7 hPa | 0 mm | - | 102 W/m² | - |
| 1777611629 | 7.22° C | 75% | 1026.7 hPa | 0 mm | - | 88 W/m² | - |
| 1777611329 | 7.22° C | 75% | 1026.7 hPa | 0 mm | - | 76 W/m² | - |
| 1777611028 | 6.67° C | 75% | 1026.7 hPa | 0 mm | - | 63 W/m² | - |
| 1777610728 | 6.67° C | 76% | 1026.7 hPa | 0 mm | - | 51 W/m² | - |
| 1777610428 | 6.67° C | 77% | 1026.6 hPa | 0 mm | - | 42 W/m² | - |
| 1777610127 | 6.67° C | 77% | 1026.5 hPa | 0 mm | - | 33 W/m² | - |
| 1777609827 | 6.11° C | 77% | 1026.5 hPa | 0 mm | - | 25 W/m² | - |
| 1777609527 | 6.11° C | 77% | 1026.5 hPa | 0 mm | - | 18 W/m² | - |
| 1777609227 | 6.11° C | 76% | 1026.4 hPa | 0 mm | - | 14 W/m² | - |
| 1777608926 | 6.11° C | 76% | 1026.4 hPa | 0 mm | - | 11 W/m² | - |
| 1777608626 | 6.11° C | 76% | 1026.3 hPa | 0 mm | - | 7 W/m² | - |
| 1777608326 | 6.11° C | 75% | 1026.3 hPa | 0 mm | - | 5 W/m² | - |
| 1777608025 | 6.67° C | 75% | 1026.2 hPa | 0 mm | - | 0 W/m² | - |
* Rain latest hour (hover to see other rain measurements)
** Current wind speed in m/s (hover to see current wind gust speed)